Regional Weather Roundup
Issued by NWS

Home | Current Version | Previous Version | Graphics & Text | Print | Product List | Glossary On
Versions: 1 2 3 4 5 6 7 8 9 10 11 12 13 14 15 16 17 18 19 20 21 22 23 24 25 26 27 28 29 30 31 32 33 34 35 36 37 38 39 40 41 42 43 44 45 46 47 48 49 50
000
ASUS43 KMKX 241759
RWRWI

WISCONSIN REGIONAL WEATHER ROUNDUP
NATIONAL WEATHER SERVICE MILWAUKEE/SULLIVAN WI
1200 PM CST SAT FEB 24 2018

NOTE: "FAIR" INDICATES FEW OR NO CLOUDS BELOW 12,000 FEET WITH NO
SIGNIFICANT WEATHER AND/OR OBSTRUCTIONS TO VISIBILITY.

WIZ001-002-006>008-014>016-023>028-241900-
NORTHWEST WISCONSIN

CITY           SKY/WX    TMP DP  RH WIND       PRES   REMARKS
SUPERIOR ARPT  FAIR      20  11  68 NE6       30.12F WCI  12
6HR MIN TEMP:  -6; 6HR MAX TEMP:  20;

ASHLAND        FAIR      26  18  71 CALM      30.12F
6HR MIN TEMP:   1; 6HR MAX TEMP:  26;

HAYWARD        FAIR      23  19  85 VRB3      30.06F
6HR MIN TEMP:  -2; 6HR MAX TEMP:  23;

SIREN          FAIR      26  18  70 SE3       30.07F
CUMBERLAND     FAIR      21  19  93 SE9       30.05F WCI  11
RICE LAKE      FAIR      22  22  98 S3        30.07F
CHETEK         FAIR      22  21  96 E3        30.06F
LADYSMITH      FAIR      28  27  94 E6        30.08F WCI  22
EAU CLAIRE     NOT AVBL
MENOMONIE      CLOUDY    24  23  96 E7        30.02F FOG     WCI  16
6HR MIN TEMP:   6; 6HR MAX TEMP:  24;

NEW RICHMOND   CLOUDY    24  21  90 E6        30.05F FOG     WCI  17
OSCEOLA        FAIR      27  27 100 E12       30.08F WCI  16
$$

WIZ003>005-009-010-017-018-241900-
NORTH CENTRAL WISCONSIN

CITY           SKY/WX    TMP DP  RH WIND       PRES   REMARKS
MANITOWISH WTR PTSUNNY   24  24 100 S9        30.09F WCI  15
ARBOR VITAE    FAIR      29  27  92 SE6       30.08F WCI  22
WOODRUFF       FAIR      29  27  92 SE6       30.08F WCI  22
RHINELANDER    FAIR      29  23  78 E9        30.06F WCI  20
6HR MIN TEMP:   3; 6HR MAX TEMP:  29; 6HR PCP: TRACE;

EAGLE RIVER    FAIR      30  21  67 E7        30.07F WCI  24
6HR MIN TEMP:   4; 6HR MAX TEMP:  30;

LAND O LAKES   CLOUDY    27  23  85 SE6       30.11F WCI  21
PHILLIPS       FAIR      27  27 100 E5        30.05F WCI  22
6HR MIN TEMP:   6; 6HR MAX TEMP:  27;

TOMAHAWK       FAIR      31  25  79 E3        30.07F
MEDFORD        FAIR     N/A N/A N/A E13       30.06F
MERRILL        CLOUDY    33  25  71 S8        30.07F WCI  26
$$

WIZ029-030-035-036-043>047-241900-
CENTRAL WISCONSIN

CITY           SKY/WX    TMP DP  RH WIND       PRES   REMARKS
WAUSAU         FAIR      32  22  66 SE14      30.05F WCI  22
6HR MIN TEMP:  17; 6HR MAX TEMP:  32;

MOSINEE        MOSUNNY   32  25  74 E9G16     30.07F WCI  24
MARSHFIELD     FAIR      30  24  78 E13       30.02F WCI  20
6HR MIN TEMP:  14; 6HR MAX TEMP:  30;

STEVENS POINT  FAIR      31  24  76 E13       30.09F WCI  21
WAUPACA        FAIR      36  26  66 E12       30.13F WCI  28
WAUTOMA        FAIR      34  26  72 E16       30.06  WCI  24
6HR MIN TEMP:  18; 6HR MAX TEMP:  35;

WISC RAPIDS    FAIR      34  22  61 E15G21    30.05F WCI  24
6HR MIN TEMP:  15; 6HR MAX TEMP:  34;

CAMP DOUGLAS   NOT AVBL
$$

WIZ011>013-019>022-031-037>040-048>050-241900-
NORTHEAST WISCONSIN

CITY           SKY/WX    TMP DP  RH WIND       PRES   REMARKS
ANTIGO         FAIR      30  23  73 SE14G20   30.10F WCI  20
SHAWANO        CLOUDY    38  27  63 E9        30.15F WCI  31
OCONTO         CLOUDY    34  24  68 E7        30.18F WCI  28
STURGEON BAY   CLOUDY    34  25  69 SE12      30.17F WCI  25
6HR MIN TEMP:  26; 6HR MAX TEMP:  35;

GREEN BAY      FAIR      37  26  64 E9        30.14F WCI  30
6HR MIN TEMP:  28; 6HR MAX TEMP:  37;

MANITOWOC      PTSUNNY   34  26  72 SE14      30.16F WCI  25
6HR MIN TEMP:  30; 6HR MAX TEMP:  35;

APPLETON       PTSUNNY   34  23  64 E9        30.11F WCI  26
CLINTONVILLE   FAIR      37  24  61 E8        30.12F WCI  30
6HR MIN TEMP:  21; 6HR MAX TEMP:  37;

OSHKOSH        FAIR      35  27  72 E13       30.09F WCI  26
6HR MIN TEMP:  22; 6HR MAX TEMP:  36;

$$

WIZ032>034-041-042-053>061-241900-
SOUTHWEST WISCONSIN

CITY           SKY/WX    TMP DP  RH WIND       PRES   REMARKS
LA CROSSE      PTSUNNY   34  25  69 SE10G21   29.97F WCI  26
6HR MIN TEMP:  18; 6HR MAX TEMP:  35;

SPARTA         FAIR      32  26  77 E10       30.03F WCI  24
VIROQUA        PTSUNNY   31  28  89 E14       29.98F WCI  21
BOSCOBEL       PTSUNNY   37  27  67 E9        29.98F WCI  30
6HR MIN TEMP:  23; 6HR MAX TEMP:  37;

PRAIRIE DU CHI CLOUDY    33  26  75 E17G23    29.98F WCI  22
PLATTEVILLE    CLOUDY    32  31  96 E21       29.98F WCI  20
$$

WIZ056-057-062-063-064-067-068-241900-
SOUTH CENTRAL WISCONSIN

CITY           SKY/WX    TMP DP  RH WIND       PRES   REMARKS
REEDSBURG      CLOUDY    34  26  74 E10G16    30.01F WCI  26
6HR MIN TEMP:  21; 6HR MAX TEMP:  35;

BARABOO/DELLS  CLOUDY    33  27  79 E12       30.05F WCI  24
LONE ROCK      NOT AVBL
MINERAL POINT  CLOUDY    34  32  93 E17G24    29.99F WCI  23
MADISON        PTSUNNY   34  27  75 SE16G25   30.04F WCI  24
6HR MIN TEMP:  25; 6HR MAX TEMP:  34;

MIDDLETON      CLOUDY    35  29  79 E12G18    30.05F WCI  26
WATERTOWN      PTSUNNY   35  29  79 E10       30.09F WCI  28
MONROE         CLOUDY    34  30  86 E14G20    30.02F WCI  24
JANESVILLE     CLOUDY    37  30  75 E16G22    30.04F WCI  28
$$

WIZ051-052-058>065-066-070>072-241900-
SOUTHEAST WISCONSIN

CITY           SKY/WX    TMP DP  RH WIND       PRES   REMARKS
MILWAUKEE      CLOUDY    37  31  78 E13       30.09F WCI  29
6HR MIN TEMP:  32; 6HR MAX TEMP:  37;

WAUKESHA       CLOUDY    34  27  75 E12G17    30.09F WCI  25
MILWAUKEE/TIMM CLOUDY    34  25  69 E12G17    30.11F WCI  25
RACINE         CLOUDY    36  30  79 E12       30.09F WCI  28
6HR MIN TEMP:  32; 6HR MAX TEMP:  37;

BURLINGTON     PTSUNNY   34  28  77 E13G21    30.09F WCI  25
KENOSHA        CLOUDY    37  30  75 E17       30.07F WCI  27
6HR MIN TEMP:  32; 6HR MAX TEMP:  37;

FOND DU LAC    FAIR      36  25  64 E15       30.10F WCI  27
6HR MIN TEMP:  26; 6HR MAX TEMP:  37; 6HR PCP: TRACE;

SHEBOYGAN      FAIR      35  27  72 SE12      30.13F WCI  27
6HR MIN TEMP:  25; 6HR MAX TEMP:  36;

WEST BEND      PTSUNNY   36  30  80 E13       30.12F WCI  27
JUNEAU         PTSUNNY   34  27  76 E14       30.10F WCI  24
$$

LSZ147-162-241900-
LAKE SUPERIOR

STATION/POSITION TIME  TEMP    WIND        PRES    WAVE
                       AIR SEA DIR/SP/G            HT/PER
                 (UTC) (F)     (DEG/KT/KT) (MB)    (FT/S)
DEVILS ISLAND    1700   21     120/  5/  5 1022.4F
SAXON HARBOR     1740   29      CALM  /  2 1020.3F
$$

LMZ867-665-643>646-241900-
LAKE MICHIGAN

STATION/POSITION TIME  TEMP    WIND        PRES    WAVE
                       AIR SEA DIR/SP/G            HT/PER
                 (UTC) (F)     (DEG/KT/KT) (MB)    (FT/S)
NORTHPORT PIER   1740   33                 1022.4F
KEWAUNEE LAKESHO 1730   35     100/  6/  9 1021.2F
SHEBOYGAN LAKESH 1700   33     100/ 13/ 14 1022.1F
PORT WASHINGTON  1740   35     100/ 10/ 11 1021.3F
KENOSHA   LAKESH 1700   34      80/  7/ 10 1020.3
$$

TC  - TEMPERATURE IN CELSIUS
VSB - VISIBILITY IN STATUTE MILES
WCI - WIND CHILL INDEX
HX  - HEAT INDEX





USA.gov is the U.S. government's official web portal to all federal, state and local government web resources and services.